Powrót do katalogu

KANYINI

AktywnyNaukaSSO
NORAD 60556·PAYLOAD·🇦🇺 Australia

Wystrzelony Aug 16, 2024 z Vandenberg Space Force Base

Loading…

Następne Przeloty (najbliższe 24 godziny)

TLE

ŚwieżeSource: Space-Track

Epoka: Sep 13, 2026, 18:00 UTC

1 60556U 24149CS  26256.75007139  .00043810  00000-0  54266-3 0  9997
2 60556  97.3681 346.4759 0001080 253.4593 106.6545 15.59954820116289

Śledź KANYINI w czasie rzeczywistym z AllMySat

Download on the App Store